Terminal Aerodrome Forecast
Issued by NWS Cleveland, OH

Home | Current Version | Previous Version | Graphics & Text | Print | Product List | Glossary On
Versions: 1 2 3 4 5 6 7 8 9 10 11 12 13 14 15 16 17
000
FTUS41 KCLE 030521
TAFTOL
TAF
KTOL 030521Z 0306/0406 00000KT P6SM OVC060
      TEMPO 0308/0312 4SM BR
     FM031800 34006KT P6SM BKN060
     FM032300 23004KT P6SM BKN250=

USA.gov is the U.S. government's official web portal to all federal, state and local government web resources and services.